Regional Weather Roundup
Issued by NWS State College, PA

Home | Current Version | Previous Version | Text Only | Print | Product List | Glossary On
Versions: 1 2 3 4 5 6 7 8 9 10 11 12 13 14 15 16 17 18 19 20 21 22 23 24 25 26 27 28 29 30 31 32 33 34 35 36 37 38 39 40 41 42 43 44 45 46 47 48 49 50
000
ASUS41 KCTP 290410
RWRCTP

REGIONAL WEATHER ROUNDUP
NATIONAL WEATHER SERVICE STATE COLLEGE PA
1200 AM EDT SUN MAY 29 2016

Note: "fair" indicates few or no clouds below 12,000 feet with no
significant weather and/or obstructions to visibility.

* = STATION THAT DOES NOT REPORT PRECIPITATION /E.G. RAIN...SNOW...ETC/
    THUNDER OR FOG.

PAZ002>004-007>009-013>016-020>023-029>032-290500-
WESTERN PENNSYLVANIA

CITY           SKY/WX    TMP DP  RH WIND       PRES   REMARKS
ERIE           PTCLDY    72  66  81 S5        30.09R
MEADVILLE      CLOUDY    69  67  93 CALM      30.13S
FRANKLIN*      CLOUDY    64  61  88 CALM      30.16S
NEW CASTLE     FAIR      69  65  86 CALM      30.12F
BEAVER COUNTY  NOT AVBL
BUTLER*        PTCLDY    73  64  73 SE3       30.15F
PITTSBURGH INT PTCLDY    76  65  68 S5        30.11F
PITTSBURGH     PTCLDY    72  62  71 SE7       30.12F
INDIANA*       MOCLDY    68  68 100 CALM      30.17F
LATROBE        PTCLDY    66  66 100 CALM      30.13F
WASHINGTON CO* CLEAR     68  64  88 CALM      30.13F
$$

PAZ004>006-010>012-017>019-024>028-033>037-041-042-045-046-049>053-290500-
CENTRAL PENNSYLVANIA

CITY           SKY/WX    TMP DP  RH WIND       PRES   REMARKS
BRADFORD       PTCLDY    63  61  93 SE5       30.17F FOG
DUBOIS         CLOUDY    73  65  75 CALM      30.15S
CLEARFIELD     CLOUDY    69  64  84 N3        30.15S
JOHNSTOWN      CLEAR     68  61  78 E3        30.18F
ALTOONA        PTCLDY    73  62  68 S7        30.16F
STATE COLLEGE  CLOUDY    75  65  71 W3        30.14S
WILLIAMSPORT   CLEAR     74  67  78 N6        30.10R
SELINSGROVE    CLEAR     73  68  84 CALM      30.12S
FT INDIANTOWN  PTCLDY    70  68  94 CALM      30.14S
CAPITAL CITY   CLOUDY    77  63  61 VRB3      30.13R
HARRISBURG     PTCLDY    78  63  59 S6        30.12S
YORK           PTCLDY    74  63  68 VRB7      30.14S
$$

PAZ038>040-043-044-047-048-054-055-060>062-067>071-290500-
EASTERN PENNSYLVANIA

CITY           SKY/WX    TMP DP  RH WIND       PRES   REMARKS
SCRANTON       CLEAR     74  67  78 CALM      30.14R
MOUNT POCONO   CLEAR     69  64  84 W7        30.19S
ALLENTOWN      CLEAR     73  63  70 SW6       30.13S
QUAKERTOWN*    CLEAR     72  66  83 CALM      30.16S
READING        CLOUDY    78  61  55 SW5       30.13R
LANCASTER      PTCLDY    74  59  59 S3        30.15R
COATESVILLE    CLOUDY    73  61  64 VRB5      30.18S
POTTSTOWN      CLEAR     74  66  76 S3        30.16R
BLUE BELL      CLEAR     72  63  73 S5        30.15R
DOYLESTOWN     CLEAR     73  62  68 S5        30.14S
WILLOW GROVE   NOT AVBL
NORTH PHILA    CLEAR     76  58  53 VRB3      30.16S
PHILADELPHIA   PTCLDY    73  59  61 S3        30.15S
$$




USA.gov is the U.S. government's official web portal to all federal, state and local government web resources and services.